User: anonymous   Login
Location: Aytr�
(46.1357°N, 1.1145°W)
Time: 04:56:46
(UTC+00:00)
Language:

HJ-1C - Orbit

View from above orbital plane
View from above orbital plane
View from above satellite
View from above satellite

Ground track
Ground track

The orbit data is extracted from the following two-line orbital elements,

1 38997U 12064A   21125.77945019  .00003345  00000-0  74725-4 0  9996
2 38997  97.1229 155.6079 0007259 274.5845 173.5354 15.44190719475497
Epoch (UTC): 05 May 2021 18:42:24
Eccentricity: 0.0007259
inclination: 97.1229°
perigee height: 429 km
apogee height: 439 km
right ascension of ascending node: 155.6079°
argument of perigee: 274.5845°
revolutions per day: 15.44190719
mean anomaly at epoch: 173.5354°
orbit number at epoch: 47549

The dashed part of the orbit path shows where the satellite is in the earth's shadow,  

DLR